Live-Position
3D-Globus wird geladen...
Über OneWeb SL0046
Group: 3 satellites
Beschreibung wird geladen...
Nächste Überflüge
Passes for default location (London). Set your location on the main map for personalized predictions.
Höhenverlauf
Loading altitude history...
No altitude history available
Zweizeiliger Elementsatz
1 45447U 20020Z 26106.26832103 -.00000089 00000-0 -28625-3 0 9993
2 45447 87.8927 33.3745 0001724 85.9461 274.1864 13.11414667294493
Epoch: 16. Apr. 2026 •
Age: 7 hours
Aktueller Status
Höhe 1236.1 km
Geschwindigkeit 7.24 km/s
Subsatellitenpunkt -45.01°S,
174.59°E
Startdatum 21. März 2020
Alter 6 years
Typ internet
Startgruppe
Unknown Vehicle •
OneWeb Launch 3 •
34 satellites
OneWeb SL0066
45424
OneWeb SL0067 45425
OneWeb SL0080 45426
OneWeb SL0090 45427
OneWeb SL0061 45428
OneWeb SL0081 45429
OneWeb SL0069 45430
OneWeb SL0031 45431
OneWeb SL0027 45432
OneWeb SL0064 45433
OneWeb SL0018 45434
OneWeb SL0083 45435
OneWeb SL0095 45436
OneWeb SL0092 45437
OneWeb SL0085 45438
OneWeb SL0096 45439
OneWeb SL0037 45440
OneWeb SL0042 45441
OneWeb SL0098 45442
OneWeb SL0055 45443
...and 13 more
Technische Details
Klassifizierung Payload
Masse 148.00 kg
Trockenmasse 140.00 kg
Gesamtmasse 148.00 kg
Länge 1.30 m
Durchmesser 1.00 m
Spannweite 5.00 m
Form Trapezoid+2 pan
Hersteller ONEWUS
Bus-Typ ARROW
Phasenstatus In Orbit
Besitzer/Staat ONEWEB/UK
Most Searched
Loading...